Overview Statistics Trail Chart Weather Telemetry Raw packets
 

This is the latest recevied weather packets stored in our database for station/object 9W2CHF-3. If no packets are shown the sender has not sent any weather packets the latest 10 day(s).

<< 1 2 3 4 5 6 >>
Time Temp. Humidity Pressure Rain* Wind** Luminosity Snow
1788558964 27.78° C 100% 1013.8 hPa - - - -
1788557764 27.78° C 100% 1013.6 hPa - - - -
1788556564 27.78° C 100% 1013.2 hPa - - - -
1788555364 27.78° C 100% 1013.1 hPa - - - -
1788554164 27.78° C 100% 1012.9 hPa - - - -
1788552964 27.78° C 100% 1012.9 hPa - - - -
1788551764 27.78° C 100% 1013 hPa - - - -
1788550563 27.78° C 100% 1012.9 hPa - - - -
1788549363 27.78° C 100% 1012.9 hPa - - - -
1788548163 27.78° C 100% 1012.9 hPa - - - -
1788546963 27.78° C 100% 1013.1 hPa - - - -
1788545763 28.89° C 100% 1013.1 hPa - - - -
1788544562 28.89° C 100% 1013.3 hPa - - - -
1788543362 28.89° C 100% 1013.2 hPa - - - -
1788542161 28.89° C 100% 1013.4 hPa - - - -
1788540960 28.89° C 100% 1013.7 hPa - - - -
1788539778 28.89° C 100% 1014 hPa - - - -
1788538560 28.89° C 100% 1014.2 hPa - - - -
1788537360 29.44° C 100% 1014 hPa - - - -
1788536160 30° C 93% 1013.9 hPa - - - -
1788534960 29.44° C 99% 1013.8 hPa - - - -
1788533759 30° C 95% 1013.7 hPa - - - -
1788532559 30.56° C 91% 1013.9 hPa - - - -
1788531359 30° C 93% 1013.8 hPa - - - -
1788530159 30.56° C 90% 1013.7 hPa - - - -

* Rain since midnight (hover to see other rain measurements)
** Current wind speed in m/s (hover to see current wind gust speed)